Location: Glendale
(37.4556°N, 88.6714°W)
Time: 04:49:20
(UTC+00:00)

Cosmos 1484 Rocket - Pass Details

Date: 08 December 2019
Orbit: 505 x 561 km, 97.4° (Epoch: 28 January)

Event Time Altitude Azimuth Distance (km) Brightness Sun altitude
Rises 11:49:00 0° 354° (N) 2,734 6.1 -13.1°
Reaches altitude 10° 11:51:36 10° 337° (NNW) 1,826 5.1 -12.6°
Maximum altitude 11:54:24 19° 291° (WNW) 1,335 4.1 -12.1°
Drops below altitude 10° 11:57:10 10° 246° (WSW) 1,794 5.0 -11.6°
Sets 11:59:42 0° 228° (SW) 2,668 6.0 -11.1°
